EW9174 Weather Reports


Display with metric or nautical units.
time (UTC)temp
F
wind
direction
speed
MPH
gust
MPH
rain 1hr
in
rain 24hr
in
rain mn
in
humidity
%
barometer
mb
20260504031541 67 45 0.0 5.0 0.00 0.00 0.00 29 1003.5
20260504030037 68 14 0.0 0.0 0.00 0.00 0.00 25 1002.9
20260504024537 69 14 0.0 0.0 0.00 0.00 0.00 25 1003.0
20260504023037 69 14 0.0 3.0 0.00 0.00 0.00 22 1003.0
20260504021535 69 14 0.0 1.0 0.00 0.00 0.00 24 1002.8
20260504020034 71 14 0.0 0.0 0.00 0.00 0.00 21 1002.6
20260504014539 73 14 0.0 0.0 0.00 0.00 0.00 20 1002.4
20260504013040 75 14 0.0 0.0 0.00 0.00 0.00 18 1002.3
20260504011534 76 11 0.0 3.0 0.00 0.00 0.00 16 1002.4
20260504010035 76 31 2.0 7.0 0.00 0.00 0.00 15 1002.4
20260504004531 77 10 1.0 5.0 0.00 0.00 0.00 15 1002.3
20260504003035 78 347 1.0 3.0 0.00 0.00 0.00 14 1002.3
20260504001536 80 269 1.0 5.0 0.00 0.00 0.00 14 1002.4
20260504000028 82 294 0.0 3.0 0.00 0.00 0.00 14 1002.4
20260503234527 82 294 0.0 4.0 0.00 0.00 0.00 15 1002.5
20260503233025 82 295 0.0 1.0 0.00 0.00 0.00 15 1002.5
20260503231524 82 295 0.0 2.0 0.00 0.00 0.00 16 1002.7
20260503230022 81 296 0.0 3.0 0.00 0.00 0.00 16 1002.8
20260503224521 82 299 0.0 4.0 0.00 0.00 0.00 14 1003.0
20260503223020 82 281 0.0 4.0 0.00 0.00 0.00 17 1003.2
20260503221519 81 42 0.0 2.0 0.00 0.00 0.00 16 1003.4
20260503220015 82 42 0.0 4.0 0.00 0.00 0.00 13 1003.8
20260503214518 81 38 0.0 2.0 0.00 0.00 0.00 15 1004.3
20260503213008 81 252 0.0 4.0 0.00 0.00 0.00 13 1004.9
20260503211505 80 36 3.0 8.0 0.00 0.00 0.00 14 1005.3
20260503210003 80 13 2.0 6.0 0.00 0.00 0.00 14 1005.6
20260503204605 79 25 0.0 7.0 0.00 0.00 0.00 16 1005.8
20260503204503 79 25 0.0 7.0 0.00 0.00 0.00 17 1005.8
20260503203059 79 40 3.0 7.0 0.00 0.00 0.00 15 1006.2
20260503201555 79 29 3.0 7.0 0.00 0.00 0.00 14 1006.6
20260503200054 78 26 1.0 5.0 0.00 0.00 0.00 16 1006.8
20260503194549 77 31 3.0 10.0 0.00 0.00 0.00 16 1007.0
20260503193049 77 344 1.0 7.0 0.00 0.00 0.00 17 1007.2
20260503191544 77 19 2.0 8.0 0.00 0.00 0.00 17 1007.6
20260503190044 76 32 2.0 6.0 0.00 0.00 0.00 17 1008.1
20260503184539 75 24 2.0 6.0 0.00 0.00 0.00 18 1008.3
20260503183033 74 17 3.0 9.0 0.00 0.00 0.00 18 1008.7
20260503181531 74 34 2.0 8.0 0.00 0.00 0.00 20 1008.9
20260503180042 74 342 3.0 10.0 0.00 0.00 0.00 19 1009.2
20260503174528 73 28 3.0 7.0 0.00 0.00 0.00 18 1009.5
20260503173025 73 330 2.0 9.0 0.00 0.00 0.00 19 1009.7
20260503171526 73 332 4.0 9.0 0.00 0.00 0.00 19 1009.9
20260503081602 43 34 0.0 2.0 0.00 0.00 0.00 70 1012.4
20260503071557 44 36 0.0 0.0 0.00 0.00 0.00 69 1012.6
20260503060106 49 36 0.0 0.0 0.00 0.00 0.00 59 1012.9
20260503054539 49 36 0.0 2.0 0.00 0.00 0.00 54 1013.1
20260503053037 49 36 0.0 0.0 0.00 0.00 0.00 50 1012.9
20260503051536 49 36 0.0 0.0 0.00 0.00 0.00 49 1013.0
20260503050037 50 36 0.0 0.0 0.00 0.00 0.00 46 1013.1
20260503044536 51 36 0.0 0.0 0.00 0.00 0.00 46 1013.3
20260503043046 52 36 0.0 0.0 0.00 0.00 0.00 44 1013.2
20260503041535 53 36 0.0 0.0 0.00 0.00 0.00 43 1013.2
20260503040042 54 36 0.0 0.0 0.00 0.00 0.00 41 1013.2
20260503034538 54 36 0.0 0.0 0.00 0.00 0.00 41 1013.1
20260503033036 54 36 0.0 0.0 0.00 0.00 0.00 39 1013.0